Time,TemperatureF,DewpointF,PressureIn,WindDirection,WindDirectionDegrees,WindSpeedMPH,WindSpeedGustMPH,Humidity,HourlyPrecipIn,Conditions,Clouds,dailyrainin,SoftwareType,DateUTC
2013-01-10 00:00:00,38.1,31.9,30.12,WSW,256,0.0,0.0,78,0.00,,---,0.00,VWS V14.01,2013-01-09 23:00:00,
2013-01-10 00:05:00,38.1,31.9,30.12,WSW,256,0.0,0.0,78,0.00,,---,0.00,VWS V14.01,2013-01-09 23:05:00,
2013-01-10 00:10:00,38.3,32.0,30.12,WSW,252,0.0,0.0,78,0.00,,---,0.00,VWS V14.01,2013-01-09 23:10:00,
2013-01-10 00:15:00,38.1,31.9,30.12,WSW,252,0.0,0.0,78,0.00,,---,0.00,VWS V14.01,2013-01-09 23:15:00,
2013-01-10 00:20:00,38.1,31.9,30.12,WSW,252,0.0,0.0,78,0.00,,---,0.00,VWS V14.01,2013-01-09 23:20:00,
2013-01-10 00:25:00,38.1,32.2,30.12,WSW,249,0.0,0.0,79,0.00,,---,0.00,VWS V14.01,2013-01-09 23:25:00,
2013-01-10 00:30:00,38.1,32.2,30.12,WSW,249,2.2,3.1,79,0.00,,---,0.00,VWS V14.01,2013-01-09 23:30:00,
2013-01-10 00:35:00,38.1,32.2,30.12,West,272,2.7,2.7,79,0.00,,---,0.00,VWS V14.01,2013-01-09 23:35:00,
2013-01-10 00:40:00,38.1,32.2,30.12,West,272,0.0,0.0,79,0.00,,---,0.00,VWS V14.01,2013-01-09 23:40:00,
2013-01-10 00:45:00,38.5,32.9,30.12,West,272,0.0,0.0,80,0.00,,---,0.00,VWS V14.01,2013-01-09 23:45:00,
2013-01-10 00:50:00,38.5,32.9,30.12,West,272,0.0,0.0,80,0.00,,---,0.00,VWS V14.01,2013-01-09 23:50:00,
2013-01-10 00:55:00,38.3,32.7,30.12,West,272,0.0,0.0,80,0.00,,---,0.00,VWS V14.01,2013-01-09 23:55:00,
2013-01-10 01:00:00,38.3,32.7,30.12,WSW,257,2.7,4.9,80,0.00,,---,0.00,VWS V14.01,2013-01-10 00:00:00,
2013-01-10 01:05:00,38.3,33.0,30.12,West,263,2.7,3.6,81,0.00,,---,0.00,VWS V14.01,2013-01-10 00:05:00,
2013-01-10 01:10:00,38.5,33.2,30.12,West,261,0.0,0.0,81,0.00,,---,0.00,VWS V14.01,2013-01-10 00:10:00,
2013-01-10 01:15:00,38.5,33.2,30.12,West,261,0.0,0.0,81,0.00,,---,0.00,VWS V14.01,2013-01-10 00:15:00,
2013-01-10 01:20:00,38.5,33.2,30.12,SSW,210,0.0,0.0,81,0.00,,---,0.00,VWS V14.01,2013-01-10 00:20:00,
2013-01-10 01:25:00,38.5,33.2,30.12,SSW,210,0.0,0.0,81,0.00,,---,0.00,VWS V14.01,2013-01-10 00:25:00,
2013-01-10 01:30:00,38.5,33.2,30.12,SSW,210,0.0,0.0,81,0.00,,---,0.00,VWS V14.01,2013-01-10 00:30:00,
2013-01-10 01:35:00,38.7,33.3,30.12,SSW,210,0.0,0.0,81,0.00,,---,0.00,VWS V14.01,2013-01-10 00:35:00,
2013-01-10 01:40:00,38.8,33.8,30.12,SSW,210,0.0,0.0,82,0.00,,---,0.00,VWS V14.01,2013-01-10 00:40:00,
2013-01-10 01:46:00,39.0,34.0,30.09,SSW,210,0.0,0.0,82,0.00,,---,0.00,VWS V14.01,2013-01-10 00:46:00,
2013-01-10 01:51:00,39.2,33.9,30.09,SSW,210,0.0,0.0,81,0.00,,---,0.00,VWS V14.01,2013-01-10 00:51:00,
2013-01-10 01:56:00,39.4,34.0,30.09,SSW,210,0.0,0.0,81,0.00,,---,0.00,VWS V14.01,2013-01-10 00:56:00,
2013-01-10 02:01:00,39.4,34.0,30.09,SSW,210,0.0,0.0,81,0.00,,---,0.00,VWS V14.01,2013-01-10 01:01:00,
2013-01-10 02:06:00,39.4,34.0,30.09,WSW,250,0.0,0.0,81,0.00,,---,0.00,VWS V14.01,2013-01-10 01:06:00,
2013-01-10 02:11:00,39.4,34.0,30.09,WSW,254,0.0,0.0,81,0.00,,---,0.00,VWS V14.01,2013-01-10 01:11:00,
2013-01-10 02:16:00,39.4,34.0,30.09,WSW,254,0.0,0.0,81,0.00,,---,0.00,VWS V14.01,2013-01-10 01:16:00,
2013-01-10 02:21:00,39.6,34.2,30.09,WSW,254,0.0,0.0,81,0.00,,---,0.00,VWS V14.01,2013-01-10 01:21:00,
2013-01-10 02:26:00,39.6,34.2,30.09,WSW,254,0.0,0.0,81,0.00,,---,0.00,VWS V14.01,2013-01-10 01:26:00,
2013-01-10 02:31:00,39.4,33.7,30.09,WSW,253,0.0,0.0,80,0.00,,---,0.00,VWS V14.01,2013-01-10 01:31:00,
2013-01-10 02:36:00,39.4,33.7,30.09,WSW,253,0.0,0.0,80,0.00,,---,0.00,VWS V14.01,2013-01-10 01:36:00,
2013-01-10 02:41:00,39.4,33.7,30.09,WSW,253,0.0,0.0,80,0.00,,---,0.00,VWS V14.01,2013-01-10 01:41:00,
2013-01-10 02:46:00,39.4,33.7,30.09,WSW,253,0.0,0.0,80,0.00,,---,0.00,VWS V14.01,2013-01-10 01:46:00,
2013-01-10 02:51:00,39.4,33.7,30.09,WSW,253,0.0,0.0,80,0.00,,---,0.00,VWS V14.01,2013-01-10 01:51:00,
2013-01-10 02:56:00,39.4,33.7,30.09,WSW,253,0.0,0.0,80,0.00,,---,0.00,VWS V14.01,2013-01-10 01:56:00,
2013-01-10 03:01:00,39.2,33.2,30.09,WSW,253,0.0,0.0,79,0.00,,---,0.00,VWS V14.01,2013-01-10 02:01:00,
2013-01-10 03:06:00,39.2,33.2,30.09,WSW,253,0.0,0.0,79,0.00,,---,0.00,VWS V14.01,2013-01-10 02:06:00,
2013-01-10 03:11:00,39.2,33.2,30.09,WSW,253,0.0,0.0,79,0.00,,---,0.00,VWS V14.01,2013-01-10 02:11:00,
2013-01-10 03:16:00,39.2,33.2,30.09,WSW,253,0.0,0.0,79,0.00,,---,0.00,VWS V14.01,2013-01-10 02:16:00,
2013-01-10 03:21:00,39.2,33.2,30.09,WSW,253,0.0,0.0,79,0.00,,---,0.00,VWS V14.01,2013-01-10 02:21:00,
2013-01-10 03:26:00,38.3,32.0,30.09,WSW,252,0.0,0.0,78,0.00,,---,0.00,VWS V14.01,2013-01-10 02:26:00,
2013-01-10 03:31:00,37.9,31.7,30.09,WSW,253,0.0,0.0,78,0.00,,---,0.00,VWS V14.01,2013-01-10 02:31:00,
2013-01-10 03:36:00,37.9,31.7,30.09,WSW,252,0.0,0.0,78,0.00,,---,0.00,VWS V14.01,2013-01-10 02:36:00,
2013-01-10 03:41:00,37.9,31.7,30.09,WSW,253,0.0,0.0,78,0.00,,---,0.00,VWS V14.01,2013-01-10 02:41:00,
2013-01-10 03:46:00,37.8,31.5,30.09,WSW,252,0.0,0.0,78,0.00,,---,0.00,VWS V14.01,2013-01-10 02:46:00,
2013-01-10 03:51:00,37.4,31.2,30.09,WSW,253,0.0,0.0,78,0.00,,---,0.00,VWS V14.01,2013-01-10 02:51:00,
2013-01-10 03:56:00,37.0,30.8,30.09,WSW,253,0.0,0.0,78,0.00,,---,0.00,VWS V14.01,2013-01-10 02:56:00,
2013-01-10 04:01:00,37.0,30.8,30.09,WSW,253,0.0,0.0,78,0.00,,---,0.00,VWS V14.01,2013-01-10 03:01:00,
2013-01-10 04:06:00,36.5,30.3,30.09,WSW,252,0.0,0.0,78,0.00,,---,0.00,VWS V14.01,2013-01-10 03:06:00,
2013-01-10 04:11:00,36.5,30.3,30.09,SW,236,0.0,0.0,78,0.00,,---,0.00,VWS V14.01,2013-01-10 03:11:00,
2013-01-10 04:16:00,36.5,30.6,30.09,WSW,241,0.0,0.0,79,0.00,,---,0.00,VWS V14.01,2013-01-10 03:16:00,
2013-01-10 04:21:00,36.5,30.6,30.09,WSW,241,0.0,0.0,79,0.00,,---,0.00,VWS V14.01,2013-01-10 03:21:00,
2013-01-10 04:26:00,36.5,30.6,30.09,WSW,241,0.0,0.0,79,0.00,,---,0.00,VWS V14.01,2013-01-10 03:26:00,
2013-01-10 04:31:00,36.1,30.3,30.09,SW,223,3.1,3.1,79,0.00,,---,0.00,VWS V14.01,2013-01-10 03:31:00,
2013-01-10 04:36:00,36.0,29.8,30.09,SW,236,0.0,0.0,78,0.00,,---,0.00,VWS V14.01,2013-01-10 03:36:00,
2013-01-10 04:41:00,35.6,29.4,30.09,SSW,207,3.6,3.6,78,0.00,,---,0.00,VWS V14.01,2013-01-10 03:41:00,
2013-01-10 04:46:00,35.2,29.4,30.09,WSW,242,2.7,2.7,79,0.00,,---,0.00,VWS V14.01,2013-01-10 03:46:00,
2013-01-10 04:51:00,35.2,29.4,30.09,WSW,243,0.0,0.0,79,0.00,,---,0.00,VWS V14.01,2013-01-10 03:51:00,
2013-01-10 04:56:00,35.2,29.7,30.09,WSW,245,0.0,0.0,80,0.00,,---,0.00,VWS V14.01,2013-01-10 03:56:00,
2013-01-10 05:01:00,35.2,29.7,30.09,WSW,245,2.7,2.7,80,0.00,,---,0.00,VWS V14.01,2013-01-10 04:01:00,
2013-01-10 05:06:00,35.2,30.0,30.09,WSW,237,3.6,3.6,81,0.00,,---,0.00,VWS V14.01,2013-01-10 04:06:00,
2013-01-10 05:11:00,35.2,30.0,30.09,WSW,238,0.0,0.0,81,0.00,,---,0.00,VWS V14.01,2013-01-10 04:11:00,
2013-01-10 05:16:00,35.1,29.8,30.09,WSW,238,0.0,0.0,81,0.00,,---,0.00,VWS V14.01,2013-01-10 04:16:00,
2013-01-10 05:21:00,35.1,29.8,30.09,WSW,238,0.0,0.0,81,0.00,,---,0.00,VWS V14.01,2013-01-10 04:21:00,
2013-01-10 05:26:00,35.1,29.8,30.09,WSW,238,0.0,0.0,81,0.00,,---,0.00,VWS V14.01,2013-01-10 04:26:00,
2013-01-10 05:31:00,35.1,29.8,30.09,WSW,238,0.0,0.0,81,0.00,,---,0.00,VWS V14.01,2013-01-10 04:31:00,
2013-01-10 05:36:00,35.4,30.5,30.09,WSW,238,0.0,0.0,82,0.00,,---,0.00,VWS V14.01,2013-01-10 04:36:00,
2013-01-10 05:41:00,35.4,30.5,30.09,WSW,238,2.7,3.1,82,0.00,,---,0.00,VWS V14.01,2013-01-10 04:41:00,
2013-01-10 05:46:00,35.6,30.7,30.09,WSW,238,0.0,0.0,82,0.00,,---,0.00,VWS V14.01,2013-01-10 04:46:00,
2013-01-10 05:51:00,35.4,30.5,30.09,WSW,238,3.6,5.4,82,0.00,,---,0.00,VWS V14.01,2013-01-10 04:51:00,
2013-01-10 05:56:00,35.4,30.5,30.09,WSW,238,0.0,4.0,82,0.00,,---,0.00,VWS V14.01,2013-01-10 04:56:00,
2013-01-10 06:01:00,35.2,30.3,30.09,WSW,238,0.0,3.6,82,0.00,,---,0.00,VWS V14.01,2013-01-10 05:01:00,
2013-01-10 06:02:00,35.2,30.3,30.09,WSW,237,2.2,4.0,82,0.00,,---,0.00,VWS V14.01,2013-01-10 05:02:00,
2013-01-10 06:04:00,35.2,30.3,30.09,SW,235,0.0,3.6,82,0.00,,---,0.00,VWS V14.01,2013-01-10 05:04:00,
2013-01-10 06:05:00,35.2,30.3,30.09,SW,234,3.1,3.1,82,0.00,,---,0.00,VWS V14.01,2013-01-10 05:05:00,
2013-01-10 06:10:00,35.1,30.1,30.09,SW,235,0.0,0.0,82,0.00,,---,0.00,VWS V14.01,2013-01-10 05:10:00,
2013-01-10 06:15:00,34.9,30.0,30.09,SW,235,0.0,0.0,82,0.00,,---,0.00,VWS V14.01,2013-01-10 05:15:00,
2013-01-10 06:20:00,34.9,30.2,30.09,SW,235,0.0,0.0,83,0.00,,---,0.00,VWS V14.01,2013-01-10 05:20:00,
2013-01-10 06:25:00,35.1,30.4,30.09,SW,235,0.0,0.0,83,0.00,,---,0.00,VWS V14.01,2013-01-10 05:25:00,
2013-01-10 06:30:00,34.9,30.2,30.09,SW,235,3.1,3.1,83,0.00,,---,0.00,VWS V14.01,2013-01-10 05:30:00,
2013-01-10 06:36:00,35.1,30.4,30.09,SW,235,0.0,2.7,83,0.00,,---,0.00,VWS V14.01,2013-01-10 05:36:00,
2013-01-10 06:41:00,35.1,30.4,30.09,SW,235,0.0,0.0,83,0.00,,---,0.00,VWS V14.01,2013-01-10 05:41:00,
2013-01-10 06:46:00,35.1,30.4,30.12,SW,235,0.0,0.0,83,0.00,,---,0.00,VWS V14.01,2013-01-10 05:46:00,
2013-01-10 06:51:00,35.1,30.4,30.12,SW,235,0.0,2.7,83,0.00,,---,0.00,VWS V14.01,2013-01-10 05:51:00,
2013-01-10 06:57:00,34.9,30.2,30.12,SW,235,3.6,4.0,83,0.00,,---,0.00,VWS V14.01,2013-01-10 05:57:00,
2013-01-10 07:02:00,34.7,30.1,30.12,SW,235,0.0,2.7,83,0.00,,---,0.00,VWS V14.01,2013-01-10 06:02:00,
2013-01-10 07:07:00,34.9,30.2,30.12,SW,235,0.0,0.0,83,0.00,,---,0.00,VWS V14.01,2013-01-10 06:07:00,
2013-01-10 07:12:00,34.9,30.5,30.12,SW,235,0.0,0.0,84,0.00,,---,0.00,VWS V14.01,2013-01-10 06:12:00,
2013-01-10 07:17:00,34.9,30.2,30.12,SW,235,0.0,0.0,83,0.00,,---,0.00,VWS V14.01,2013-01-10 06:17:00,
2013-01-10 07:22:00,34.7,30.1,30.12,SW,235,0.0,0.0,83,0.00,,---,0.00,VWS V14.01,2013-01-10 06:22:00,
2013-01-10 07:27:00,34.7,30.1,30.12,SW,235,0.0,0.0,83,0.00,,---,0.00,VWS V14.01,2013-01-10 06:27:00,
2013-01-10 07:32:00,34.3,29.7,30.12,SW,236,0.0,0.0,83,0.00,,---,0.00,VWS V14.01,2013-01-10 06:32:00,
2013-01-10 07:37:00,34.5,30.2,30.12,SW,235,0.0,0.0,84,0.00,,---,0.00,VWS V14.01,2013-01-10 06:37:00,
2013-01-10 07:42:00,34.7,30.4,30.12,SW,235,0.0,0.0,84,0.00,,---,0.00,VWS V14.01,2013-01-10 06:42:00,
2013-01-10 07:47:00,34.7,30.4,30.12,SW,235,0.0,0.0,84,0.00,,---,0.00,VWS V14.01,2013-01-10 06:47:00,
2013-01-10 07:52:00,34.5,29.9,30.12,SW,235,0.0,0.0,83,0.00,,---,0.00,VWS V14.01,2013-01-10 06:52:00,
2013-01-10 07:57:00,34.3,29.7,30.12,SW,235,2.7,3.6,83,0.00,,---,0.00,VWS V14.01,2013-01-10 06:57:00,
2013-01-10 08:02:00,34.3,29.7,30.12,SW,235,0.0,0.0,83,0.00,,---,0.00,VWS V14.01,2013-01-10 07:02:00,
2013-01-10 08:07:00,34.2,29.5,30.12,SW,235,0.0,0.0,83,0.00,,---,0.00,VWS V14.01,2013-01-10 07:07:00,
2013-01-10 08:12:00,34.2,29.5,30.12,SW,235,0.0,0.0,83,0.00,,---,0.00,VWS V14.01,2013-01-10 07:12:00,
2013-01-10 08:17:00,34.0,29.4,30.12,SW,235,0.0,0.0,83,0.00,,---,0.00,VWS V14.01,2013-01-10 07:17:00,
2013-01-10 08:22:00,34.0,29.4,30.12,SW,235,0.0,0.0,83,0.00,,---,0.00,VWS V14.01,2013-01-10 07:22:00,
2013-01-10 08:27:00,34.0,29.4,30.12,SW,235,0.0,0.0,83,0.00,,---,0.00,VWS V14.01,2013-01-10 07:27:00,
2013-01-10 08:32:00,34.2,29.8,30.12,SW,235,0.0,0.0,84,0.00,,---,0.00,VWS V14.01,2013-01-10 07:32:00,
2013-01-10 08:37:00,34.2,29.8,30.12,SW,235,0.0,0.0,84,0.00,,---,0.00,VWS V14.01,2013-01-10 07:37:00,
2013-01-10 08:42:00,34.2,29.8,30.12,SW,235,0.0,0.0,84,0.00,,---,0.00,VWS V14.01,2013-01-10 07:42:00,
2013-01-10 08:47:00,34.2,29.8,30.12,SW,235,0.0,0.0,84,0.00,,---,0.00,VWS V14.01,2013-01-10 07:47:00,
2013-01-10 08:52:00,34.5,30.2,30.12,SW,235,0.0,3.6,84,0.00,,---,0.00,VWS V14.01,2013-01-10 07:52:00,
2013-01-10 08:57:00,34.7,30.7,30.12,SW,235,0.0,2.7,85,0.00,,---,0.00,VWS V14.01,2013-01-10 07:57:00,
2013-01-10 09:02:00,34.7,30.7,30.12,SW,235,0.0,0.0,85,0.00,,---,0.00,VWS V14.01,2013-01-10 08:02:00,
2013-01-10 09:07:00,35.2,31.2,30.12,SW,235,0.0,0.0,85,0.00,,---,0.00,VWS V14.01,2013-01-10 08:07:00,
2013-01-10 09:12:00,35.4,31.4,30.12,SW,236,2.7,4.0,85,0.00,,---,0.00,VWS V14.01,2013-01-10 08:12:00,
2013-01-10 09:17:00,35.4,31.4,30.15,SW,236,0.0,0.0,85,0.00,,---,0.00,VWS V14.01,2013-01-10 08:17:00,
2013-01-10 09:22:00,35.8,31.7,30.15,SW,235,0.0,0.0,85,0.00,,---,0.00,VWS V14.01,2013-01-10 08:22:00,
2013-01-10 09:27:00,36.1,32.1,30.15,SW,236,0.0,0.0,85,0.00,,---,0.00,VWS V14.01,2013-01-10 08:27:00,
2013-01-10 09:32:00,36.1,32.1,30.15,SW,236,3.6,3.6,85,0.00,,---,0.00,VWS V14.01,2013-01-10 08:32:00,
2013-01-10 09:37:00,36.3,32.2,30.15,SW,235,3.1,3.1,85,0.00,,---,0.00,VWS V14.01,2013-01-10 08:37:00,
2013-01-10 09:43:00,36.5,32.4,30.15,SW,235,0.0,0.0,85,0.00,,---,0.00,VWS V14.01,2013-01-10 08:43:00,
2013-01-10 09:48:00,36.9,32.8,30.15,SW,235,2.7,4.0,85,0.00,,---,0.00,VWS V14.01,2013-01-10 08:48:00,
2013-01-10 09:53:00,37.0,33.0,30.15,SW,235,4.0,4.0,85,0.00,,---,0.00,VWS V14.01,2013-01-10 08:53:00,
2013-01-10 09:58:00,37.2,33.1,30.15,SSW,198,0.0,3.6,85,0.00,,---,0.00,VWS V14.01,2013-01-10 08:58:00,
2013-01-10 10:03:00,37.8,33.7,30.15,South,190,3.1,3.6,85,0.00,,---,0.00,VWS V14.01,2013-01-10 09:03:00,
2013-01-10 10:08:00,37.8,33.7,30.15,SSE,163,4.0,4.0,85,0.00,,---,0.00,VWS V14.01,2013-01-10 09:08:00,
2013-01-10 10:13:00,39.7,35.6,30.15,SSW,201,5.4,5.4,85,0.00,,---,0.00,VWS V14.01,2013-01-10 09:13:00,
2013-01-10 10:18:00,39.9,35.5,30.15,South,179,3.1,3.6,84,0.00,,---,0.00,VWS V14.01,2013-01-10 09:18:00,
2013-01-10 10:23:00,39.9,35.5,30.15,South,174,4.0,4.0,84,0.00,,---,0.00,VWS V14.01,2013-01-10 09:23:00,
2013-01-10 10:28:00,39.9,35.5,30.15,South,175,0.0,0.0,84,0.00,,---,0.00,VWS V14.01,2013-01-10 09:28:00,
2013-01-10 10:33:00,41.5,35.5,30.15,SW,233,2.7,2.7,79,0.00,,---,0.00,VWS V14.01,2013-01-10 09:33:00,
2013-01-10 10:38:00,42.1,36.0,30.15,SW,233,0.0,0.0,79,0.00,,---,0.00,VWS V14.01,2013-01-10 09:38:00,
2013-01-10 10:43:00,43.0,36.9,30.15,SW,233,0.0,0.0,79,0.00,,---,0.00,VWS V14.01,2013-01-10 09:43:00,
2013-01-10 10:48:00,45.0,38.5,30.15,SW,233,0.0,0.0,78,0.00,,---,0.00,VWS V14.01,2013-01-10 09:48:00,
2013-01-10 10:53:00,45.3,38.5,30.15,WSW,248,2.7,4.0,77,0.00,,---,0.00,VWS V14.01,2013-01-10 09:53:00,
2013-01-10 10:58:00,45.3,37.2,30.15,WSW,248,0.0,0.0,73,0.00,,---,0.00,VWS V14.01,2013-01-10 09:58:00,
2013-01-10 11:03:00,45.5,37.0,30.15,WSW,249,0.0,3.1,72,0.00,,---,0.00,VWS V14.01,2013-01-10 10:03:00,
2013-01-10 11:08:00,45.7,36.8,30.15,WSW,250,0.0,0.0,71,0.00,,---,0.00,VWS V14.01,2013-01-10 10:08:00,
2013-01-10 11:13:00,45.7,36.5,30.15,WSW,250,0.0,0.0,70,0.00,,---,0.00,VWS V14.01,2013-01-10 10:13:00,
2013-01-10 11:18:00,46.2,36.6,30.15,WSW,249,0.0,0.0,69,0.00,,---,0.00,VWS V14.01,2013-01-10 10:18:00,
2013-01-10 11:23:00,46.6,36.6,30.15,WSW,249,0.0,0.0,68,0.00,,---,0.00,VWS V14.01,2013-01-10 10:23:00,
2013-01-10 11:28:00,47.5,37.1,30.15,WSW,250,0.0,0.0,67,0.00,,---,0.00,VWS V14.01,2013-01-10 10:28:00,
2013-01-10 11:33:00,48.2,37.4,30.15,West,272,4.5,4.5,66,0.00,,---,0.00,VWS V14.01,2013-01-10 10:33:00,
2013-01-10 11:38:00,48.2,37.4,30.15,West,261,0.0,0.0,66,0.00,,---,0.00,VWS V14.01,2013-01-10 10:38:00,
2013-01-10 11:43:00,49.1,34.5,30.15,WNW,285,0.0,0.0,57,0.00,,---,0.00,VWS V14.01,2013-01-10 10:43:00,
2013-01-10 11:48:00,49.6,34.6,30.15,WNW,285,0.0,0.0,56,0.00,,---,0.00,VWS V14.01,2013-01-10 10:48:00,
2013-01-10 11:53:00,49.8,33.4,30.15,SW,233,3.1,4.0,53,0.00,,---,0.00,VWS V14.01,2013-01-10 10:53:00,
2013-01-10 11:58:00,50.2,32.3,30.15,WSW,254,0.0,0.0,50,0.00,,---,0.00,VWS V14.01,2013-01-10 10:58:00,
2013-01-10 12:03:00,50.2,32.3,30.15,WSW,253,2.7,3.1,50,0.00,,---,0.00,VWS V14.01,2013-01-10 11:03:00,
2013-01-10 12:08:00,50.2,32.3,30.15,WSW,253,0.0,3.1,50,0.00,,---,0.00,VWS V14.01,2013-01-10 11:08:00,
2013-01-10 12:13:00,50.2,32.3,30.15,SW,235,5.4,5.4,50,0.00,,---,0.00,VWS V14.01,2013-01-10 11:13:00,
2013-01-10 12:18:00,52.0,29.6,30.15,West,266,0.0,0.0,42,0.00,,---,0.00,VWS V14.01,2013-01-10 11:18:00,
2013-01-10 12:23:00,52.5,30.7,30.15,SSW,204,0.0,0.0,43,0.00,,---,0.00,VWS V14.01,2013-01-10 11:23:00,
2013-01-10 12:28:00,53.1,30.0,30.15,WSW,239,0.0,0.0,41,0.00,,---,0.00,VWS V14.01,2013-01-10 11:28:00,
2013-01-10 12:33:00,53.6,29.9,30.15,SW,228,0.0,0.0,40,0.00,,---,0.00,VWS V14.01,2013-01-10 11:33:00,
2013-01-10 12:38:00,54.5,30.7,30.15,West,261,4.9,4.9,40,0.00,,---,0.00,VWS V14.01,2013-01-10 11:38:00,
2013-01-10 12:43:00,54.7,30.2,30.15,West,266,2.7,3.1,39,0.00,,---,0.00,VWS V14.01,2013-01-10 11:43:00,
2013-01-10 12:48:00,55.4,30.9,30.12,West,266,0.0,0.0,39,0.00,,---,0.00,VWS V14.01,2013-01-10 11:48:00,
2013-01-10 12:53:00,55.9,31.4,30.12,West,266,0.0,0.0,39,0.00,,---,0.00,VWS V14.01,2013-01-10 11:53:00,
2013-01-10 12:58:00,56.5,31.2,30.12,SSW,206,0.0,0.0,38,0.00,,---,0.00,VWS V14.01,2013-01-10 11:58:00,
2013-01-10 13:03:00,56.5,31.2,30.12,SSW,210,0.0,0.0,38,0.00,,---,0.00,VWS V14.01,2013-01-10 12:03:00,
2013-01-10 13:08:00,56.8,30.9,30.12,SSW,211,5.4,5.4,37,0.00,,---,0.00,VWS V14.01,2013-01-10 12:08:00,
2013-01-10 13:13:00,56.7,30.0,30.12,SW,223,0.0,3.6,36,0.00,,---,0.00,VWS V14.01,2013-01-10 12:13:00,
2013-01-10 13:18:00,56.7,30.7,30.12,SW,222,0.0,0.0,37,0.00,,---,0.00,VWS V14.01,2013-01-10 12:18:00,
2013-01-10 13:23:00,56.7,30.0,30.12,SW,229,4.0,4.0,36,0.00,,---,0.00,VWS V14.01,2013-01-10 12:23:00,
2013-01-10 13:28:00,56.7,30.0,30.12,West,271,3.1,5.4,36,0.00,,---,0.00,VWS V14.01,2013-01-10 12:28:00,
2013-01-10 13:34:00,56.7,30.0,30.12,WSW,251,2.7,4.0,36,0.00,,---,0.00,VWS V14.01,2013-01-10 12:34:00,
2013-01-10 13:39:00,56.8,30.2,30.12,West,265,0.0,2.2,36,0.00,,---,0.00,VWS V14.01,2013-01-10 12:39:00,
2013-01-10 13:44:00,56.8,30.2,30.12,WSW,244,4.9,4.9,36,0.00,,---,0.00,VWS V14.01,2013-01-10 12:44:00,
2013-01-10 13:49:00,57.2,29.8,30.09,WSW,250,4.0,4.0,35,0.00,,---,0.00,VWS V14.01,2013-01-10 12:49:00,
2013-01-10 13:54:00,57.2,29.8,30.09,WSW,242,0.0,0.0,35,0.00,,---,0.00,VWS V14.01,2013-01-10 12:54:00,
2013-01-10 13:59:00,57.7,30.3,30.09,WSW,246,2.2,2.2,35,0.00,,---,0.00,VWS V14.01,2013-01-10 12:59:00,
2013-01-10 14:04:00,57.9,30.5,30.09,WSW,243,2.7,3.1,35,0.00,,---,0.00,VWS V14.01,2013-01-10 13:04:00,
2013-01-10 14:09:00,58.3,30.8,30.09,SW,224,2.7,4.0,35,0.00,,---,0.00,VWS V14.01,2013-01-10 13:09:00,
2013-01-10 14:14:00,58.6,31.1,30.09,SW,221,0.0,0.0,35,0.00,,---,0.00,VWS V14.01,2013-01-10 13:14:00,
2013-01-10 14:19:00,58.8,31.2,30.09,SSW,196,2.7,3.6,35,0.00,,---,0.00,VWS V14.01,2013-01-10 13:19:00,
2013-01-10 14:24:00,58.8,31.2,30.09,West,260,4.9,4.9,35,0.00,,---,0.00,VWS V14.01,2013-01-10 13:24:00,
2013-01-10 14:29:00,58.8,29.8,30.09,WSW,252,6.3,6.3,33,0.00,,---,0.00,VWS V14.01,2013-01-10 13:29:00,
2013-01-10 14:34:00,58.8,29.8,30.09,SSE,157,3.6,3.6,33,0.00,,---,0.00,VWS V14.01,2013-01-10 13:34:00,
2013-01-10 14:39:00,58.6,29.6,30.09,SW,228,0.0,0.0,33,0.00,,---,0.00,VWS V14.01,2013-01-10 13:39:00,
2013-01-10 14:44:00,59.4,29.5,30.09,SSE,166,0.0,0.0,32,0.00,,---,0.00,VWS V14.01,2013-01-10 13:44:00,
2013-01-10 14:49:00,59.4,29.5,30.09,West,263,0.0,0.0,32,0.00,,---,0.00,VWS V14.01,2013-01-10 13:49:00,
2013-01-10 14:54:00,60.1,29.4,30.09,WSW,247,0.0,2.7,31,0.00,,---,0.00,VWS V14.01,2013-01-10 13:54:00,
2013-01-10 14:59:00,60.1,29.4,30.09,South,173,2.7,2.7,31,0.00,,---,0.00,VWS V14.01,2013-01-10 13:59:00,
2013-01-10 15:04:00,60.4,28.1,30.09,SW,232,0.0,0.0,29,0.00,,---,0.00,VWS V14.01,2013-01-10 14:04:00,
2013-01-10 15:09:00,60.1,27.7,30.09,SW,222,0.0,0.0,29,0.00,,---,0.00,VWS V14.01,2013-01-10 14:09:00,
2013-01-10 15:14:00,60.3,27.9,30.09,South,187,0.0,3.1,29,0.00,,---,0.00,VWS V14.01,2013-01-10 14:14:00,
2013-01-10 15:19:00,60.4,28.1,30.09,SSW,203,0.0,0.0,29,0.00,,---,0.00,VWS V14.01,2013-01-10 14:19:00,
2013-01-10 15:24:00,60.6,28.2,30.09,West,279,0.0,0.0,29,0.00,,---,0.00,VWS V14.01,2013-01-10 14:24:00,
2013-01-10 15:29:00,60.3,27.9,30.09,West,279,0.0,0.0,29,0.00,,---,0.00,VWS V14.01,2013-01-10 14:29:00,
2013-01-10 15:34:00,59.7,27.4,30.09,West,261,3.1,3.6,29,0.00,,---,0.00,VWS V14.01,2013-01-10 14:34:00,
2013-01-10 15:39:00,59.0,26.8,30.09,WSW,251,5.4,5.4,29,0.00,,---,0.00,VWS V14.01,2013-01-10 14:39:00,
2013-01-10 15:44:00,58.5,27.2,30.09,West,272,3.1,6.3,30,0.00,,---,0.00,VWS V14.01,2013-01-10 14:44:00,
2013-01-10 15:49:00,58.3,27.0,30.09,WNW,301,3.1,3.1,30,0.00,,---,0.00,VWS V14.01,2013-01-10 14:49:00,
2013-01-10 15:54:00,57.9,27.5,30.09,South,169,4.0,4.0,31,0.00,,---,0.00,VWS V14.01,2013-01-10 14:54:00,
2013-01-10 15:59:00,57.9,27.5,30.09,SW,224,4.0,4.0,31,0.00,,---,0.00,VWS V14.01,2013-01-10 14:59:00,
2013-01-10 16:04:00,57.2,28.4,30.09,West,270,4.9,4.9,33,0.00,,---,0.00,VWS V14.01,2013-01-10 15:04:00,
2013-01-10 16:09:00,56.8,29.5,30.09,West,267,4.9,4.9,35,0.00,,---,0.00,VWS V14.01,2013-01-10 15:09:00,
2013-01-10 16:14:00,56.8,29.5,30.09,South,191,3.1,4.0,35,0.00,,---,0.00,VWS V14.01,2013-01-10 15:14:00,
2013-01-10 16:19:00,56.5,29.2,30.09,SW,227,0.0,0.0,35,0.00,,---,0.00,VWS V14.01,2013-01-10 15:19:00,
2013-01-10 16:24:00,56.7,29.3,30.09,SW,227,0.0,0.0,35,0.00,,---,0.00,VWS V14.01,2013-01-10 15:24:00,
2013-01-10 16:29:00,56.8,29.5,30.09,West,262,3.1,3.1,35,0.00,,---,0.00,VWS V14.01,2013-01-10 15:29:00,
2013-01-10 16:34:00,56.7,29.3,30.09,WSW,254,0.0,0.0,35,0.00,,---,0.00,VWS V14.01,2013-01-10 15:34:00,
2013-01-10 16:39:00,56.7,29.3,30.09,West,270,0.0,3.1,35,0.00,,---,0.00,VWS V14.01,2013-01-10 15:39:00,
2013-01-10 16:44:00,56.3,29.7,30.09,West,264,0.0,0.0,36,0.00,,---,0.00,VWS V14.01,2013-01-10 15:44:00,
2013-01-10 16:49:00,55.9,29.4,30.09,SSW,206,0.0,0.0,36,0.00,,---,0.00,VWS V14.01,2013-01-10 15:49:00,
2013-01-10 16:54:00,55.8,29.2,30.09,SSW,206,0.0,0.0,36,0.00,,---,0.00,VWS V14.01,2013-01-10 15:54:00,
2013-01-10 16:59:00,55.2,29.4,30.09,SSW,199,0.0,2.7,37,0.00,,---,0.00,VWS V14.01,2013-01-10 15:59:00,
2013-01-10 17:04:00,54.5,29.4,30.09,SSW,198,0.0,0.0,38,0.00,,---,0.00,VWS V14.01,2013-01-10 16:04:00,
2013-01-10 17:09:00,54.1,29.8,30.09,WSW,237,0.0,0.0,39,0.00,,---,0.00,VWS V14.01,2013-01-10 16:09:00,
2013-01-10 17:14:00,54.0,30.2,30.09,SSW,202,0.0,0.0,40,0.00,,---,0.00,VWS V14.01,2013-01-10 16:14:00,
2013-01-10 17:19:00,53.6,30.5,30.09,WSW,257,0.0,0.0,41,0.00,,---,0.00,VWS V14.01,2013-01-10 16:19:00,
2013-01-10 17:24:00,53.4,30.9,30.09,WSW,248,0.0,0.0,42,0.00,,---,0.00,VWS V14.01,2013-01-10 16:24:00,
2013-01-10 17:29:00,53.4,30.9,30.09,West,260,0.0,0.0,42,0.00,,---,0.00,VWS V14.01,2013-01-10 16:29:00,
2013-01-10 17:34:00,53.1,30.6,30.09,West,261,0.0,0.0,42,0.00,,---,0.00,VWS V14.01,2013-01-10 16:34:00,
2013-01-10 17:39:00,53.1,30.6,30.09,WSW,255,4.0,4.0,42,0.00,,---,0.00,VWS V14.01,2013-01-10 16:39:00,
2013-01-10 17:44:00,52.7,30.3,30.09,WSW,248,0.0,0.0,42,0.00,,---,0.00,VWS V14.01,2013-01-10 16:44:00,
2013-01-10 17:49:00,52.5,30.1,30.09,SW,216,0.0,0.0,42,0.00,,---,0.00,VWS V14.01,2013-01-10 16:49:00,
2013-01-10 17:54:00,51.8,30.0,30.09,WSW,248,0.0,0.0,43,0.00,,---,0.00,VWS V14.01,2013-01-10 16:54:00,
2013-01-10 18:00:00,51.4,30.3,30.09,West,277,0.0,0.0,44,0.00,,---,0.00,VWS V14.01,2013-01-10 17:00:00,
2013-01-10 18:05:00,51.4,30.3,30.09,SSE,157,4.0,4.0,44,0.00,,---,0.00,VWS V14.01,2013-01-10 17:05:00,
2013-01-10 18:10:00,50.5,30.5,30.09,South,190,2.2,4.0,46,0.00,,---,0.00,VWS V14.01,2013-01-10 17:10:00,
2013-01-10 18:15:00,49.8,30.9,30.09,WSW,238,0.0,2.2,48,0.00,,---,0.00,VWS V14.01,2013-01-10 17:15:00,
2013-01-10 18:20:00,49.5,31.1,30.09,SSW,200,0.0,2.7,49,0.00,,---,0.00,VWS V14.01,2013-01-10 17:20:00,
2013-01-10 18:25:00,49.3,31.5,30.09,WSW,244,0.0,0.0,50,0.00,,---,0.00,VWS V14.01,2013-01-10 17:25:00,
2013-01-10 18:30:00,49.1,32.2,30.09,WSW,258,0.0,0.0,52,0.00,,---,0.00,VWS V14.01,2013-01-10 17:30:00,
2013-01-10 18:35:00,48.9,32.6,30.09,West,259,2.7,2.7,53,0.00,,---,0.00,VWS V14.01,2013-01-10 17:35:00,
2013-01-10 18:40:00,49.1,32.7,30.09,WNW,291,3.6,3.6,53,0.00,,---,0.00,VWS V14.01,2013-01-10 17:40:00,
2013-01-10 18:45:00,48.7,32.4,30.09,NW,318,0.0,0.0,53,0.00,,---,0.00,VWS V14.01,2013-01-10 17:45:00,
2013-01-10 18:50:00,48.6,32.2,30.09,NW,316,0.0,0.0,53,0.00,,---,0.00,VWS V14.01,2013-01-10 17:50:00,
2013-01-10 18:55:00,48.7,32.8,30.09,NW,321,4.0,4.0,54,0.00,,---,0.00,VWS V14.01,2013-01-10 17:55:00,
2013-01-10 19:00:00,48.6,32.7,30.09,NW,321,0.0,0.0,54,0.00,,---,0.00,VWS V14.01,2013-01-10 18:00:00,
2013-01-10 19:05:00,48.4,32.5,30.09,NW,321,0.0,0.0,54,0.00,,---,0.00,VWS V14.01,2013-01-10 18:05:00,
2013-01-10 19:10:00,48.2,32.3,30.09,NW,321,0.0,0.0,54,0.00,,---,0.00,VWS V14.01,2013-01-10 18:10:00,
2013-01-10 19:15:00,48.2,32.3,30.09,NW,321,0.0,0.0,54,0.00,,---,0.00,VWS V14.01,2013-01-10 18:15:00,
2013-01-10 19:20:00,47.7,31.9,30.09,NW,321,0.0,0.0,54,0.00,,---,0.00,VWS V14.01,2013-01-10 18:20:00,
2013-01-10 19:25:00,47.5,32.1,30.09,NW,321,0.0,0.0,55,0.00,,---,0.00,VWS V14.01,2013-01-10 18:25:00,
2013-01-10 19:30:00,47.3,32.0,30.09,NW,321,0.0,0.0,55,0.00,,---,0.00,VWS V14.01,2013-01-10 18:30:00,
2013-01-10 19:35:00,47.3,32.4,30.09,NW,321,0.0,0.0,56,0.00,,---,0.00,VWS V14.01,2013-01-10 18:35:00,
2013-01-10 19:40:00,47.1,32.2,30.09,NW,321,0.0,0.0,56,0.00,,---,0.00,VWS V14.01,2013-01-10 18:40:00,
2013-01-10 19:45:00,46.9,32.1,30.09,NW,321,0.0,0.0,56,0.00,,---,0.00,VWS V14.01,2013-01-10 18:45:00,
2013-01-10 19:50:00,46.8,32.8,30.09,NW,321,0.0,0.0,58,0.00,,---,0.00,VWS V14.01,2013-01-10 18:50:00,
2013-01-10 19:55:00,46.6,32.6,30.09,NW,321,0.0,0.0,58,0.00,,---,0.00,VWS V14.01,2013-01-10 18:55:00,
2013-01-10 20:00:00,46.2,32.7,30.09,NW,321,0.0,0.0,59,0.00,,---,0.00,VWS V14.01,2013-01-10 19:00:00,
2013-01-10 20:05:00,45.9,32.4,30.09,NW,321,0.0,0.0,59,0.00,,---,0.00,VWS V14.01,2013-01-10 19:05:00,
2013-01-10 20:10:00,45.7,32.2,30.09,NW,321,0.0,0.0,59,0.00,,---,0.00,VWS V14.01,2013-01-10 19:10:00,
2013-01-10 20:15:00,45.5,32.0,30.12,North,357,0.0,0.0,59,0.00,,---,0.00,VWS V14.01,2013-01-10 19:15:00,
2013-01-10 20:20:00,45.3,31.9,30.12,North,357,0.0,0.0,59,0.00,,---,0.00,VWS V14.01,2013-01-10 19:20:00,
2013-01-10 20:25:00,45.0,32.3,30.12,North,357,0.0,0.0,61,0.00,,---,0.00,VWS V14.01,2013-01-10 19:25:00,
2013-01-10 20:30:00,45.0,32.3,30.12,North,357,0.0,0.0,61,0.00,,---,0.00,VWS V14.01,2013-01-10 19:30:00,
2013-01-10 20:35:00,44.8,32.2,30.12,North,357,0.0,0.0,61,0.00,,---,0.00,VWS V14.01,2013-01-10 19:35:00,
2013-01-10 20:40:00,44.6,32.8,30.12,North,357,0.0,0.0,63,0.00,,---,0.00,VWS V14.01,2013-01-10 19:40:00,
2013-01-10 20:45:00,44.6,32.8,30.12,North,357,0.0,0.0,63,0.00,,---,0.00,VWS V14.01,2013-01-10 19:45:00,
2013-01-10 20:50:00,44.4,32.6,30.12,North,357,0.0,0.0,63,0.00,,---,0.00,VWS V14.01,2013-01-10 19:50:00,
2013-01-10 20:55:00,44.2,32.8,30.12,North,357,0.0,0.0,64,0.00,,---,0.00,VWS V14.01,2013-01-10 19:55:00,
2013-01-10 21:00:00,44.2,32.8,30.12,North,357,0.0,0.0,64,0.00,,---,0.00,VWS V14.01,2013-01-10 20:00:00,
2013-01-10 21:05:00,44.2,32.8,30.12,North,357,0.0,0.0,64,0.00,,---,0.00,VWS V14.01,2013-01-10 20:05:00,
2013-01-10 21:10:00,44.2,32.8,30.12,WSW,258,3.1,3.1,64,0.00,,---,0.00,VWS V14.01,2013-01-10 20:10:00,
2013-01-10 21:15:00,44.2,34.0,30.12,West,259,0.0,0.0,67,0.00,,---,0.00,VWS V14.01,2013-01-10 20:15:00,
2013-01-10 21:20:00,44.2,34.0,30.12,WSW,255,0.0,0.0,67,0.00,,---,0.00,VWS V14.01,2013-01-10 20:20:00,
2013-01-10 21:25:00,43.5,32.9,30.12,NW,318,0.0,0.0,66,0.00,,---,0.00,VWS V14.01,2013-01-10 20:25:00,
2013-01-10 21:30:00,43.2,33.0,30.12,NW,318,0.0,0.0,67,0.00,,---,0.00,VWS V14.01,2013-01-10 20:30:00,
2013-01-10 21:35:00,43.0,32.8,30.12,NW,318,0.0,0.0,67,0.00,,---,0.00,VWS V14.01,2013-01-10 20:35:00,
2013-01-10 21:40:00,42.8,32.6,30.12,NW,318,0.0,0.0,67,0.00,,---,0.00,VWS V14.01,2013-01-10 20:40:00,
2013-01-10 21:45:00,42.4,32.6,30.12,NW,318,0.0,0.0,68,0.00,,---,0.00,VWS V14.01,2013-01-10 20:45:00,
2013-01-10 21:50:00,42.4,32.6,30.12,NW,318,0.0,0.0,68,0.00,,---,0.00,VWS V14.01,2013-01-10 20:50:00,
2013-01-10 21:55:00,42.3,32.8,30.12,West,272,0.0,0.0,69,0.00,,---,0.00,VWS V14.01,2013-01-10 20:55:00,
2013-01-10 22:00:00,42.3,33.2,30.12,West,272,0.0,0.0,70,0.00,,---,0.00,VWS V14.01,2013-01-10 21:00:00,
2013-01-10 22:05:00,42.3,33.2,30.12,West,272,0.0,0.0,70,0.00,,---,0.00,VWS V14.01,2013-01-10 21:05:00,
2013-01-10 22:10:00,42.1,33.0,30.12,WSW,247,0.0,0.0,70,0.00,,---,0.00,VWS V14.01,2013-01-10 21:10:00,
2013-01-10 22:15:00,41.7,32.7,30.12,WSW,246,0.0,0.0,70,0.00,,---,0.00,VWS V14.01,2013-01-10 21:15:00,
2013-01-10 22:20:00,41.7,33.0,30.12,WSW,247,0.0,0.0,71,0.00,,---,0.00,VWS V14.01,2013-01-10 21:20:00,
2013-01-10 22:25:00,41.7,33.0,30.12,WSW,246,0.0,0.0,71,0.00,,---,0.00,VWS V14.01,2013-01-10 21:25:00,
2013-01-10 22:30:00,41.7,33.4,30.12,WSW,247,0.0,0.0,72,0.00,,---,0.00,VWS V14.01,2013-01-10 21:30:00,
2013-01-10 22:36:00,41.7,33.4,30.12,WSW,247,0.0,0.0,72,0.00,,---,0.00,VWS V14.01,2013-01-10 21:36:00,
2013-01-10 22:41:00,41.5,33.2,30.12,WSW,246,0.0,0.0,72,0.00,,---,0.00,VWS V14.01,2013-01-10 21:41:00,
2013-01-10 22:46:00,41.5,33.2,30.12,WSW,243,0.0,0.0,72,0.00,,---,0.00,VWS V14.01,2013-01-10 21:46:00,
2013-01-10 22:51:00,41.5,33.5,30.12,WSW,243,0.0,0.0,73,0.00,,---,0.00,VWS V14.01,2013-01-10 21:51:00,
2013-01-10 22:56:00,41.4,33.4,30.12,WSW,243,0.0,0.0,73,0.00,,---,0.00,VWS V14.01,2013-01-10 21:56:00,
2013-01-10 23:01:00,41.4,33.4,30.12,WSW,243,0.0,0.0,73,0.00,,---,0.00,VWS V14.01,2013-01-10 22:01:00,
2013-01-10 23:06:00,41.4,33.4,30.12,WSW,243,0.0,0.0,73,0.00,,---,0.00,VWS V14.01,2013-01-10 22:06:00,
2013-01-10 23:11:00,41.0,33.0,30.12,WSW,243,0.0,0.0,73,0.00,,---,0.00,VWS V14.01,2013-01-10 22:11:00,
2013-01-10 23:16:00,40.8,33.2,30.12,WSW,243,0.0,0.0,74,0.00,,---,0.00,VWS V14.01,2013-01-10 22:16:00,
2013-01-10 23:21:00,40.6,33.0,30.12,WSW,243,0.0,0.0,74,0.00,,---,0.00,VWS V14.01,2013-01-10 22:21:00,
2013-01-10 23:26:00,40.6,33.0,30.12,WSW,243,0.0,0.0,74,0.00,,---,0.00,VWS V14.01,2013-01-10 22:26:00,
2013-01-10 23:31:00,40.6,33.0,30.12,WSW,243,0.0,0.0,74,0.00,,---,0.00,VWS V14.01,2013-01-10 22:31:00,
2013-01-10 23:36:00,40.3,32.7,30.12,WSW,243,0.0,0.0,74,0.00,,---,0.00,VWS V14.01,2013-01-10 22:36:00,
2013-01-10 23:41:00,39.9,32.3,30.12,WSW,243,0.0,0.0,74,0.00,,---,0.00,VWS V14.01,2013-01-10 22:41:00,
2013-01-10 23:46:00,39.9,32.3,30.12,WSW,243,0.0,0.0,74,0.00,,---,0.00,VWS V14.01,2013-01-10 22:46:00,
2013-01-10 23:51:00,39.9,32.3,30.12,WSW,243,0.0,0.0,74,0.00,,---,0.00,VWS V14.01,2013-01-10 22:51:00,
2013-01-10 23:56:00,39.6,32.0,30.12,WSW,238,0.0,0.0,74,0.00,,---,0.00,VWS V14.01,2013-01-10 22:56:00,